Tracking 31030 objects as of 17-Jul-2025
HD Live streaming from Space Station
objects crossing your sky now

STARLINK-32339

Track STARLINK-32339 now!
10-day predictions
STARLINK-32339 is classified as:


NORAD ID: 61640
Int'l Code: 2024-191V
Perigee: 489.3 km
Apogee: 491.0 km
Inclination: 43.0 °
Period: 94.3 minutes
Semi major axis: 6861 km
RCS: Unknown
Launch date: October 23, 2024
Source: United States (US)
Launch site: AIR FORCE EASTERN TEST RANGE (AFETR)
Your satellite tracking list
Your tracking list is empty




NASA's NSSDC Master Catalog

Two Line Element Set (TLE):
1 61640U 24191V   25196.87985004  .00000802  00000-0  38649-4 0  9992
2 61640  42.9997  51.5118 0001229 277.3489  82.7222 15.27591116 41314
Source of the keplerian elements: AFSPC